North Platte, NE

3:49 AM CDT on March 23, 2017 (GMT -0500)
North Platte Regional-Bird

Weather History for KLBF - October, 2011

Change the Weather History Date:

Friday, October 7, 2011

  Actual Average Record
Temperature  
Mean Temperature 65 °F 53 °F  
Max Temperature 79 °F 68 °F 92 °F (1934)
Min Temperature 50 °F 37 °F 12 °F (1952)
Degree Days  
Heating Degree Days 0 13  
Month to date heating degree days 9 80  
Since 1 July heating degree days 184 251  
Cooling Degree Days 0 0  
Month to date cooling degree days 17 0  
Year to date cooling degree days 921 765  
Growing Degree Days 16 (Base 50)    
Moisture  
Dew Point 47 °F    
Average Humidity 55    
Maximum Humidity 90    
Minimum Humidity 19    
Precipitation  
Precipitation 0.62 in 0.05 in 1.48 in (1946)
Month to date precipitation 0.64 0.38  
Year to date precipitation 21.74 18.01  
Snow  
Snow 0.00 in 0.00 in 0.20 in (1884)
Month to date snowfall 0.0 0.2  
Since 1 July snowfall 0.0 0.4  
Since 1 September snowfall 0.0 0.4  
Snow Depth 0.00 in    
Sea Level Pressure  
Sea Level Pressure 29.72 in    
Wind  
Wind Speed 10 mph (South)    
Max Wind Speed 24 mph    
Max Gust Speed 31 mph    
Visibility 10 miles    
Events Rain , Thunderstorm    
T = Trace of Precipitation, MM = Missing Value Source: NWS Daily Summary

Daily Weather History Graph

Daily Weather History Graph

Search for Another Location

Airport or City:

Trip Planner

Search our weather history database for the weather conditions in past years. The results will help you decide how hot, cold, wet, or windy it might be!

Date:

Astronomy

Oct. 07, 2011 Rise Set
Actual Time 7:45 AM CDT 7:15 PM CDT
Civil Twilight 7:17 AM CDT 7:42 PM CDT
Nautical Twilight 6:45 AM CDT 8:14 PM CDT
Astronomical Twilight 6:13 AM CDT 8:46 PM CDT
Moon 5:00 PM CDT (10/7) 3:33 AM CDT (10/7)
Length of Visible Light 12h 24m
Length of Day
11h 29m
Waxing Gibbous, 83% of the Moon is Illuminated
Oct 7
Waxing Gibbous
Oct 11
Full
Oct 19
Last Quarter
Oct 26
New
Nov 2
First Quarter

Hourly Weather History & Observations

Time (CDT) Temp. Dew Point Humidity Pressure Visibility Wind Dir Wind Speed Gust Speed Precip Events Conditions
12:08 AM 62.6 °F 59.0 °F 88% 29.65 in 10.0 mi South 11.5 mph 20.7 mph N/A   Scattered Clouds
12:39 AM 64.4 °F 60.8 °F 88% 29.66 in 10.0 mi South 10.4 mph 24.2 mph N/A   Overcast
12:53 AM 64.0 °F 62.1 °F 93% 29.57 in 9.0 mi SSW 6.9 mph - 0.01 in Rain Light Rain
1:00 AM 64.4 °F 62.6 °F 94% 29.64 in 10.0 mi SSW 4.6 mph - 0.00 in Rain Light Rain
1:48 AM 62.6 °F 60.8 °F 94% 29.66 in 10.0 mi SSE 10.4 mph - 0.00 in   Partly Cloudy
1:53 AM 62.1 °F 59.0 °F 90% 29.59 in 10.0 mi SSE 10.4 mph - 0.00 in   Partly Cloudy
2:53 AM 61.0 °F 57.9 °F 90% 29.61 in 10.0 mi South 10.4 mph - N/A   Mostly Cloudy
3:53 AM 60.1 °F 57.0 °F 90% 29.62 in 10.0 mi South 12.7 mph - N/A   Overcast
4:53 AM 59.0 °F 54.0 °F 83% 29.67 in 10.0 mi SSW 10.4 mph - N/A   Overcast
5:53 AM 57.0 °F 44.1 °F 62% 29.70 in 10.0 mi SW 5.8 mph - N/A   Overcast
6:53 AM 55.0 °F 46.0 °F 72% 29.72 in 10.0 mi South 3.5 mph - N/A   Overcast
7:53 AM 53.1 °F 44.1 °F 71% 29.75 in 10.0 mi SSW 3.5 mph - N/A   Mostly Cloudy
8:53 AM 55.0 °F 42.1 °F 62% 29.76 in 10.0 mi SSW 3.5 mph - N/A   Clear
9:53 AM 61.0 °F 39.0 °F 44% 29.76 in 10.0 mi South 4.6 mph - N/A   Clear
10:53 AM 66.9 °F 33.1 °F 28% 29.78 in 10.0 mi SSW 9.2 mph - N/A   Clear
11:53 AM 71.6 °F 26.6 °F 19% 29.83 in 10.0 mi SW 18.4 mph 25.3 mph N/A   Clear
12:53 PM 75.0 °F 30.0 °F 19% 29.75 in 10.0 mi South 16.1 mph 23.0 mph N/A   Clear
1:53 PM 75.9 °F 34.0 °F 22% 29.75 in 10.0 mi South 16.1 mph 23.0 mph N/A   Clear
2:53 PM 78.1 °F 34.0 °F 20% 29.73 in 10.0 mi South 17.3 mph 27.6 mph N/A   Clear
3:53 PM 75.0 °F 33.1 °F 22% 29.73 in 10.0 mi South 17.3 mph 25.3 mph N/A   Clear
4:53 PM 78.1 °F 36.0 °F 22% 29.72 in 10.0 mi South 20.7 mph 28.8 mph N/A   Clear
5:53 PM 75.9 °F 39.9 °F 27% 29.74 in 10.0 mi South 15.0 mph 21.9 mph N/A   Clear
6:53 PM 71.1 °F 42.1 °F 35% 29.75 in 10.0 mi South 8.1 mph - N/A   Clear
7:53 PM 66.0 °F 43.0 °F 43% 29.76 in 10.0 mi South 3.5 mph - N/A   Clear
8:53 PM 55.9 °F 45.0 °F 67% 29.80 in 10.0 mi ESE 9.2 mph - N/A   Clear
9:53 PM 55.0 °F 46.0 °F 72% 29.81 in 10.0 mi ESE 8.1 mph - N/A   Clear
10:53 PM 61.0 °F 55.0 °F 81% 29.81 in 10.0 mi NNW 3.5 mph - 0.00 in Rain Light Rain
11:01 PM 60.8 °F 55.4 °F 82% 29.86 in 10.0 mi North 4.6 mph - 0.00 in Rain , Thunderstorm Light Rain
11:53 PM 59.0 °F 57.0 °F 93% 29.83 in 7.0 mi West 9.2 mph - 0.16 in Rain , Thunderstorm Thunderstorms and Rain